Location: Borkenes
(68.7830°N, 16.1830°E)
Time: 22:48:16
(UTC+01:00)

A-11 Canister half - Visible Passes

Search period start: 14 December 2019 00:00
Search period end: 24 December 2019 00:00
Orbit: 1515 x 1685 km, 47.2° (Epoch: 13 December)

Date Brightness Start Highest point End Pass type
(mag) Time Alt. Az. Time Alt. Az. Time Alt. Az.
14 Dec 11.4 15:49:05 10° WSW 15:54:40 17° SSW 16:00:20 10° S visible
15 Dec 11.5 15:26:13 10° WSW 15:31:54 17° SSW 15:37:39 10° SSE visible
16 Dec 11.5 15:03:23 10° WSW 15:09:08 17° SSW 15:14:58 10° SSE visible
17 Dec 11.6 14:40:33 10° WSW 14:46:22 18° SSW 14:52:17 10° SSE visible
18 Dec 11.7 14:17:43 10° WSW 14:23:36 18° SSW 14:29:35 10° SSE visible
18 Dec 12.0 16:24:37 10° SW 16:25:05 10° SW 16:25:33 10° SW visible
19 Dec 12.1 16:00:41 10° SW 16:02:21 11° SW 16:04:03 10° SSW visible
20 Dec 12.1 15:37:19 10° SW 15:39:37 11° SW 15:41:56 10° SSW visible
21 Dec 12.2 09:08:00 10° SSE 09:11:42 13° SE 09:15:27 10° ESE visible
21 Dec 12.2 15:14:08 10° WSW 15:16:53 11° SW 15:19:40 10° SSW visible
22 Dec 12.1 08:45:37 10° SSE 08:48:58 12° SE 08:52:22 10° ESE visible
22 Dec 12.3 14:51:01 10° WSW 14:54:09 12° SW 14:57:19 10° SSW visible
23 Dec 12.0 08:23:17 10° SSE 08:26:15 12° SE 08:29:13 10° ESE visible
23 Dec 12.2 14:27:59 10° WSW 14:31:25 12° SW 14:34:53 10° SSW visible
